Weather History for Oceanside, CA

Change the Weather History Date:

Sunday, August 11, 2013

  Actual Average Record
Temperature  
Mean Temperature 65 °F 70 °F  
Max Temperature 73 °F 77 °F 86 °F (2012)
Min Temperature 57 °F 62 °F 57 °F (2013)
Degree Days  
Heating Degree Days 0 0  
Month to date heating degree days 0 0  
Since 1 June heating degree days 3 30  
Since 1 July heating degree days 0 3  
Cooling Degree Days 0 4  
Month to date cooling degree days 24 44  
Year to date cooling degree days 281 206  
Since 1 June cooling degree days 252 196  
Growing Degree Days 15 (Base 50)    
Moisture  
Dew Point 57 °F    
Average Humidity 72    
Maximum Humidity 86    
Minimum Humidity 57    
Precipitation  
Precipitation 0.00 in 0.01 in 0.00 in (2014)
Month to date precipitation 0.00 0.02  
Year to date precipitation 2.33 9.41  
Since 1 July precipitation 0.01 0.14  
Snow  
Snow 0.00 in - - ()
Month to date snowfall 0.0  
Year to date snowfall 0.0  
Since 1 July snowfall 0.0  
Snow Depth 0.00 in    
Sea Level Pressure  
Sea Level Pressure 29.96 in    
Wind  
Wind Speed 4 mph (WSW)    
Max Wind Speed 21 mph    
Max Gust Speed 20 mph    
Visibility 10 miles    
Events      
T = Trace of Precipitation, MM = Missing Value Source: NWS Daily Summary

Daily Weather History Graph

Daily Weather History Graph

Search for Another Location

Airport:

Trip Planner

Search our weather history database for the weather conditions in past years. The results will help you decide how hot, cold, wet, or windy it might be!

Date:

Astronomy

Aug. 11, 2013 Rise Set
Actual Time 6:09 AM PDT 7:38 PM PDT
Civil Twilight 5:43 AM PDT 8:05 PM PDT
Nautical Twilight 5:11 AM PDT 8:36 PM PDT
Astronomical Twilight 4:38 AM PDT 9:09 PM PDT
Moon 10:43 AM PDT (8/11) 10:17 PM PDT (8/11)
Length of Visible Light 14h 22m
Length of Day
13h 29m
Waxing Crescent, 23% of the Moon is Illuminated
Aug 11
Waxing Crescent
Aug 14
First Quarter
Aug 20
Full
Aug 28
Last Quarter
Sep 5
New

Hourly Weather History & Observations

Time (PDT) Temp. Dew Point Humidity Pressure Visibility Wind Dir Wind Speed Gust Speed Precip Events Conditions
12:03 AM 57.2 °F 53.6 °F 88% 29.99 in 10.0 mi Calm Calm - N/A   Mostly Cloudy
12:26 AM 57.2 °F 53.6 °F 88% 29.98 in 10.0 mi Calm Calm - N/A   Partly Cloudy
12:52 AM 57.0 °F 53.1 °F 87% 29.99 in 9.0 mi Calm Calm - N/A   Partly Cloudy
1:13 AM 57.2 °F 53.6 °F 88% 29.98 in 9.0 mi Calm Calm - N/A   Mostly Cloudy
1:52 AM 60.1 °F 55.0 °F 83% 29.98 in 10.0 mi Calm Calm - N/A   Overcast
2:52 AM 62.1 °F 55.0 °F 78% 29.97 in 10.0 mi Calm Calm - N/A   Overcast
3:52 AM 62.1 °F 55.9 °F 80% 29.97 in 10.0 mi Calm Calm - N/A   Overcast
4:52 AM 62.1 °F 55.9 °F 80% 29.97 in 10.0 mi Calm Calm - N/A   Overcast
5:52 AM 61.0 °F 54.0 °F 78% 29.97 in 10.0 mi Calm Calm - N/A   Overcast
6:52 AM 63.0 °F 55.9 °F 78% 29.99 in 9.0 mi Calm Calm - N/A   Overcast
7:52 AM 63.0 °F 55.9 °F 78% 29.99 in 10.0 mi Calm Calm - N/A   Overcast
8:52 AM 66.0 °F 55.9 °F 70% 29.99 in 9.0 mi ENE 4.6 mph - N/A   Overcast
9:13 AM 66.2 °F 57.2 °F 73% 29.98 in 9.0 mi Variable 4.6 mph - N/A   Scattered Clouds
9:52 AM 68.0 °F 57.0 °F 68% 29.98 in 9.0 mi Variable 3.5 mph - N/A   Clear
10:52 AM 72.0 °F 57.9 °F 61% 29.98 in 10.0 mi WSW 6.9 mph - N/A   Clear
11:52 AM 72.0 °F 57.9 °F 61% 29.97 in 10.0 mi WSW 6.9 mph - N/A   Clear
12:52 PM 73.0 °F 57.9 °F 59% 29.96 in 10.0 mi SW 10.4 mph - N/A   Clear
1:52 PM 73.0 °F 57.9 °F 59% 29.95 in 10.0 mi WSW 9.2 mph - N/A   Clear
2:52 PM 72.0 °F 57.9 °F 61% 29.94 in 10.0 mi West 8.1 mph - N/A   Clear
3:52 PM 71.1 °F 59.0 °F 66% 29.93 in 10.0 mi WSW 6.9 mph 19.6 mph N/A   Clear
4:52 PM 70.0 °F 59.0 °F 68% 29.91 in 10.0 mi WSW 6.9 mph - N/A   Clear
5:52 PM 69.1 °F 59.0 °F 70% 29.91 in 10.0 mi West 5.8 mph - N/A   Clear
6:52 PM 66.9 °F 59.0 °F 76% 29.91 in 10.0 mi West 3.5 mph - N/A   Mostly Cloudy
7:00 PM 66.2 °F 59.0 °F 78% 29.91 in 10.0 mi Variable 3.5 mph - N/A   Scattered Clouds
7:52 PM 66.0 °F 59.0 °F 78% 29.92 in 10.0 mi Calm Calm - N/A   Clear
8:35 PM 66.2 °F 59.0 °F 78% 29.93 in 10.0 mi Calm Calm - N/A   Mostly Cloudy
8:52 PM 66.0 °F 59.0 °F 78% 29.93 in 10.0 mi Calm Calm - N/A   Overcast
9:52 PM 66.0 °F 59.0 °F 78% 29.94 in 10.0 mi Calm Calm - N/A   Overcast
10:52 PM 66.0 °F 59.0 °F 78% 29.94 in 10.0 mi Calm Calm - N/A   Overcast
11:52 PM 66.0 °F 60.1 °F 81% 29.94 in 10.0 mi NW 3.5 mph - N/A   Overcast